Regional Weather Roundup
Issued by NWS Cleveland, OH

Home | Current Version | Previous Version | Graphics & Text | Print | Product List | Glossary On
Versions: 1 2 3 4 5 6 7 8 9 10 11 12 13 14 15 16 17 18 19 20 21 22 23 24 25 26 27 28 29 30 31 32 33 34 35 36 37 38 39 40 41 42 43 44 45 46 47 48 49 50
000
ASUS41 KCLE 040812
RWRCLE
OHIO REGIONAL WEATHER ROUNDUP
NATIONAL WEATHER SERVICE WILMINGTON, OH
300 AM EST SUN DEC 04 2016

NOTE: "FAIR" INDICATES FEW OR NO CLOUDS BELOW 12,000 FEET WITH NO
SIGNIFICANT WEATHER AND/OR OBSTRUCTIONS TO VISIBILITY.

OHZ001>008-015>018-024>027-034-035-043-044-040900-
   NORTHWEST OHIO

CITY           SKY/WX    TMP DP  RH WIND       PRES   REMARKS
DEFIANCE       CLOUDY    35  26  69 CALM      30.28S
FINDLAY        CLOUDY    34  26  72 SE3       30.26F
TOLEDO EXPRESS CLOUDY    33  28  81 S3        30.27S
TOLEDO EXEC    CLOUDY    35  31  85 S3        30.29R
LIMA           CLOUDY    33  28  81 E3        30.26S
$$

OHZ009>014-019>023-028>033-038-089-040900-
   NORTHEAST OHIO

CITY           SKY/WX    TMP DP  RH WIND       PRES   REMARKS
CLE-HOPKINS    CLOUDY    37  25  61 S5        30.31S
CLE-LAKEFRONT  CLOUDY    37  27  67 CALM      30.29S
CUY CO. ARPT   NOT AVBL
LORAIN-ELYRIA  CLOUDY    33  27  78 S5        30.29F WCI  29
ASHTABULA      CLOUDY    35  30  82 W6        30.28S
AKRON-CANTON   CLOUDY    36  23  59 CALM      30.27S
WOOSTER        CLOUDY    34  26  72 CALM      30.28S
MANSFIELD      CLOUDY    32  28  85 E3        30.26F
YOUNGSTOWN     CLOUDY    34  27  75 W3        30.26S
$$

OHZ042-051>053-060>062-070>072-077>081-040900-
  SOUTHWEST OHIO

CITY           SKY/WX    TMP DP  RH WIND       PRES   REMARKS
CINC-COVINGTON CLOUDY    37  31  78 SE6       30.25S
CINC-LUNKEN    FAIR      36  33  89 CALM      30.28S
HAMILTON       FAIR      33  30  88 CALM      30.28R
DAYTON         CLOUDY    33  28  81 SE5       30.26S WCI  29
WRIGHT-PAT AFB CLOUDY    33  28  80 CALM      30.26R
DAYTON GENERAL FAIR      35  26  69 E6        30.25R
WILMINGTON     FAIR      32  27  81 E3        30.25R
$$

OHZ036-037-039>041-045>050-054>059-063>069-073>076-082>088-040900-
  CENTRAL AND SOUTHEAST OHIO

CITY           SKY/WX    TMP DP  RH WIND       PRES   REMARKS
COLUMBUS       CLOUDY    35  30  82 E7        30.27F WCI  29
OSU AIRPORT    FAIR      33  28  81 E3        30.27S
BOLTON FIELD   FAIR      33  28  83 CALM      30.26F
RICKENBACK AFB FAIR      32  29  91 E3        30.27S
NEWARK         CLOUDY    35  28  75 CALM      30.28R
MARION         CLOUDY    32  27  81 SE5       30.27F WCI  27
LANCASTER      FAIR      34  30  85 E5        30.28S WCI  30
ZANESVILLE     CLOUDY    35  28  75 CALM      30.29R
NEW PHILLY     CLOUDY    34  30  85 CALM      30.30S
$$



USA.gov is the U.S. government's official web portal to all federal, state and local government web resources and services.